Idaho Falls, ID

5:25 AM MDT on March 30, 2017 (GMT -0600)
Fanning

Weather History for KIDA - February, 2013

Change the Weather History Date:

Sunday, February 24, 2013

  Actual Average Record
Temperature  
Mean Temperature 13 °F 27 °F  
Max Temperature 27 °F 37 °F 60 °F (1986)
Min Temperature -1 °F 18 °F -14 °F (1952)
Degree Days  
Heating Degree Days 52 38  
Month to date heating degree days 981 994  
Since 1 July heating degree days 5365 5657  
Cooling Degree Days 0 0  
Month to date cooling degree days 0 0  
Year to date cooling degree days 0 0  
Moisture  
Dew Point 8 °F    
Average Humidity 69    
Maximum Humidity 88    
Minimum Humidity 50    
Precipitation  
Precipitation 0.00 in 0.02 in 0.16 in (1960)
Month to date precipitation 0.06 0.55  
Year to date precipitation 0.37 1.24  
Sea Level Pressure  
Sea Level Pressure 30.32 in    
Wind  
Wind Speed 7 mph (SW)    
Max Wind Speed 18 mph    
Max Gust Speed 21 mph    
Visibility 10 miles    
Events      
T = Trace of Precipitation, MM = Missing Value Source: NWS Daily Summary

Daily Weather History Graph

Daily Weather History Graph

Search for Another Location

Airport or City:

Trip Planner

Search our weather history database for the weather conditions in past years. The results will help you decide how hot, cold, wet, or windy it might be!

Date:

Astronomy

Feb. 24, 2013 Rise Set
Actual Time 7:12 AM MST 6:11 PM MST
Civil Twilight 6:43 AM MST 6:40 PM MST
Nautical Twilight 6:10 AM MST 7:13 PM MST
Astronomical Twilight 5:37 AM MST 7:46 PM MST
Moon 5:26 PM MST (2/24) 6:12 AM MST (2/24)
Length of Visible Light 11h 56m
Length of Day
10h 58m
Waxing Gibbous, 99% of the Moon is Illuminated
Feb 24
Waxing Gibbous
Feb 25
Full
Mar 4
Last Quarter
Mar 11
New
Mar 19
First Quarter

Hourly Weather History & Observations

Time (MST) Temp. Windchill Dew Point Humidity Pressure Visibility Wind Dir Wind Speed Gust Speed Precip Events Conditions
12:53 AM 15.1 °F 1.1 °F 6.1 °F 68% 30.13 in 10.0 mi NNW 12.7 mph - N/A   Clear
1:53 AM 14.0 °F 5.1 °F 5.0 °F 67% 30.15 in 10.0 mi NE 5.8 mph - N/A   Clear
2:53 AM 10.0 °F -0.9 °F 3.0 °F 73% 30.17 in 10.0 mi North 6.9 mph - N/A   Clear
3:53 AM 9.0 °F -2.2 °F 1.9 °F 73% 30.20 in 10.0 mi North 6.9 mph - N/A   Clear
4:53 AM 10.0 °F - 3.0 °F 73% 30.22 in 10.0 mi Calm Calm - N/A   Clear
5:53 AM 1.9 °F -7.6 °F -2.9 °F 80% 30.28 in 10.0 mi North 4.6 mph - N/A   Clear
6:53 AM 3.0 °F -8.0 °F -2.0 °F 80% 30.31 in 10.0 mi North 5.8 mph - N/A   Clear
7:53 AM 7.0 °F - 3.9 °F 87% 30.32 in 10.0 mi Calm Calm - N/A   Clear
8:53 AM 3.9 °F -5.3 °F -0.0 °F 84% 30.37 in 10.0 mi West 4.6 mph - N/A   Clear
9:53 AM 12.0 °F 5.9 °F 3.9 °F 70% 30.38 in 10.0 mi West 3.5 mph - N/A   Clear
10:53 AM 19.9 °F - 7.0 °F 57% 30.35 in 10.0 mi Calm Calm - N/A   Clear
11:53 AM 23.0 °F - 7.0 °F 50% 30.35 in 10.0 mi Calm Calm - N/A   Clear
12:53 PM 23.0 °F 13.1 °F 10.9 °F 60% 30.35 in 10.0 mi SW 9.2 mph - N/A   Clear
1:53 PM 25.0 °F 15.5 °F 12.9 °F 60% 30.33 in 10.0 mi SSW 9.2 mph - N/A   Clear
2:53 PM 26.1 °F 15.6 °F 12.9 °F 58% 30.34 in 10.0 mi South 11.5 mph - N/A   Clear
3:53 PM 27.0 °F 16.1 °F 15.1 °F 61% 30.35 in 10.0 mi SSW 12.7 mph - N/A   Clear
4:53 PM 26.1 °F 13.6 °F 16.0 °F 66% 30.36 in 10.0 mi SSW 16.1 mph - N/A   Clear
5:53 PM 24.1 °F 13.7 °F 16.0 °F 71% 30.40 in 10.0 mi SSW 10.4 mph - N/A   Clear
6:53 PM 23.0 °F 12.4 °F 16.0 °F 74% 30.40 in 10.0 mi South 10.4 mph - N/A   Clear
7:53 PM 21.9 °F 13.4 °F 15.1 °F 75% 30.39 in 10.0 mi South 6.9 mph - N/A   Clear
8:53 PM 21.9 °F 15.7 °F 15.1 °F 75% 30.41 in 10.0 mi South 4.6 mph - N/A   Clear
9:53 PM 21.9 °F 13.4 °F 14.0 °F 72% 30.37 in 10.0 mi South 6.9 mph - N/A   Clear
10:53 PM 17.1 °F 7.6 °F 12.0 °F 81% 30.36 in 10.0 mi SW 6.9 mph - N/A   Clear
11:53 PM 7.0 °F - 3.0 °F 84% 30.39 in 8.0 mi Calm Calm - N/A   Partly Cloudy